TimeEST,TemperatureF,Dew PointF,Humidity,Sea Level PressureIn,VisibilityMPH,Wind Direction,Wind SpeedMPH,Gust SpeedMPH,PrecipitationIn,Events,Conditions,WindDirDegrees,DateUTC
12:53 AM,53.1,46.0,77,29.90,10.0,South,10.4,20.7,N/A,,Overcast,180,2013-02-11 05:53:00
1:27 AM,53.6,46.4,77,29.92,10.0,South,9.2,-,0.00,,Overcast,180,2013-02-11 06:27:00
1:53 AM,53.1,46.9,80,29.90,10.0,South,5.8,-,0.00,,Overcast,190,2013-02-11 06:53:00
2:53 AM,53.1,48.0,83,29.91,10.0,SSW,3.5,-,N/A,,Overcast,210,2013-02-11 07:53:00
3:53 AM,55.9,50.0,80,29.91,10.0,SW,12.7,21.9,0.00,,Overcast,230,2013-02-11 08:53:00
4:34 AM,53.6,51.8,94,29.92,10.0,SW,9.2,17.3,0.02,Rain,Light Rain,220,2013-02-11 09:34:00
4:46 AM,55.4,51.8,88,29.93,10.0,SW,10.4,-,0.02,Rain,Light Rain,230,2013-02-11 09:46:00
4:53 AM,55.0,51.1,86,29.93,10.0,SW,10.4,-,0.02,,Overcast,220,2013-02-11 09:53:00
5:24 AM,55.4,51.8,88,29.92,10.0,SW,8.1,17.3,N/A,,Overcast,220,2013-02-11 10:24:00
5:36 AM,55.4,51.8,88,29.93,10.0,SW,9.2,-,N/A,,Overcast,220,2013-02-11 10:36:00
5:53 AM,54.0,51.1,90,29.93,10.0,SW,6.9,-,N/A,,Overcast,220,2013-02-11 10:53:00
6:41 AM,53.6,51.8,94,29.94,10.0,SW,8.1,-,0.00,,Mostly Cloudy,230,2013-02-11 11:41:00
6:48 AM,55.4,51.8,88,29.94,10.0,SW,6.9,-,0.00,,Mostly Cloudy,230,2013-02-11 11:48:00
6:53 AM,54.0,51.1,90,29.94,10.0,SW,8.1,-,0.00,,Mostly Cloudy,220,2013-02-11 11:53:00
7:53 AM,54.0,48.0,80,29.97,10.0,WSW,10.4,-,0.01,,Partly Cloudy,240,2013-02-11 12:53:00
8:53 AM,54.0,44.1,69,29.99,10.0,SW,11.5,20.7,N/A,,Clear,230,2013-02-11 13:53:00
9:53 AM,55.0,39.9,57,29.99,10.0,West,17.3,23.0,N/A,,Clear,260,2013-02-11 14:53:00
10:53 AM,54.0,37.9,55,30.01,10.0,WSW,19.6,24.2,N/A,,Clear,250,2013-02-11 15:53:00
11:53 AM,55.0,37.9,53,30.01,10.0,WSW,11.5,-,N/A,,Clear,240,2013-02-11 16:53:00
12:53 PM,54.0,30.0,40,30.01,10.0,West,15.0,26.5,N/A,,Clear,260,2013-02-11 17:53:00
1:53 PM,54.0,27.0,35,30.02,10.0,WSW,15.0,25.3,N/A,,Clear,250,2013-02-11 18:53:00
2:53 PM,53.1,21.9,30,30.03,10.0,WSW,20.7,27.6,N/A,,Clear,250,2013-02-11 19:53:00
3:53 PM,52.0,26.1,37,30.02,10.0,WSW,11.5,20.7,N/A,,Clear,250,2013-02-11 20:53:00
4:53 PM,50.0,23.0,35,30.03,10.0,WSW,10.4,-,N/A,,Clear,250,2013-02-11 21:53:00
5:53 PM,48.9,23.0,36,30.03,10.0,WSW,11.5,-,N/A,,Clear,250,2013-02-11 22:53:00
6:53 PM,44.1,21.9,42,30.04,10.0,WSW,6.9,-,N/A,,Clear,250,2013-02-11 23:53:00
7:53 PM,43.0,23.0,45,30.07,10.0,West,6.9,-,N/A,,Clear,270,2013-02-12 00:53:00
8:53 PM,41.0,23.0,49,30.09,10.0,West,6.9,-,N/A,,Clear,270,2013-02-12 01:53:00
9:53 PM,39.9,23.0,51,30.10,10.0,Calm,Calm,-,N/A,,Clear,0,2013-02-12 02:53:00
10:53 PM,37.9,24.1,57,30.12,10.0,SSW,4.6,-,N/A,,Clear,200,2013-02-12 03:53:00
11:53 PM,39.0,25.0,57,30.13,10.0,West,4.6,-,N/A,,Clear,270,2013-02-12 04:53:00